| time (UTC) | temp F | wind direction | speed knots | gust knots | rain 1hr in | rain 24hr in | rain mn in | humidity % | barometer mb |
| 20260505122103 | 66 | 348 | 1.7 | 4.3 | 0.00 | 0.00 | 0.00 | 74 | 1009.7 |
| 20260505121603 | 66 | 349 | 2.6 | 7.0 | 0.00 | 0.00 | 0.00 | 74 | 1009.8 |
| 20260505121103 | 65 | 349 | 4.3 | 7.0 | 0.00 | 0.00 | 0.00 | 75 | 1009.7 |
| 20260505120604 | 65 | 345 | 2.6 | 5.2 | 0.00 | 0.00 | 0.00 | 75 | 1009.5 |
| 20260505120104 | 65 | 347 | 2.6 | 7.0 | 0.00 | 0.00 | 0.00 | 76 | 1009.7 |
| 20260505115604 | 65 | 344 | 4.3 | 7.8 | 0.00 | 0.00 | 0.00 | 77 | 1009.5 |
| 20260505114604 | 64 | 349 | 3.5 | 7.8 | 0.00 | 0.00 | 0.00 | 77 | 1009.6 |
| 20260505114104 | 63 | 348 | 1.7 | 7.0 | 0.00 | 0.00 | 0.00 | 79 | 1009.5 |
| 20260505113604 | 63 | 347 | 0.9 | 6.1 | 0.00 | 0.00 | 0.00 | 80 | 1009.5 |
| 20260505112604 | 62 | 343 | 4.3 | 8.7 | 0.00 | 0.00 | 0.00 | 80 | 1009.4 |
| 20260505112104 | 62 | 349 | 2.6 | 4.3 | 0.00 | 0.00 | 0.00 | 81 | 1009.3 |
| 20260505111103 | 61 | 347 | 2.6 | 4.3 | 0.00 | 0.00 | 0.00 | 83 | 1009.3 |
| 20260505110604 | 61 | 351 | 1.7 | 5.2 | 0.00 | 0.00 | 0.00 | 82 | 1009.3 |
| 20260505110104 | 61 | 348 | 1.7 | 5.2 | 0.00 | 0.00 | 0.00 | 82 | 1009.4 |
| 20260505102104 | 60 | 349 | 0.9 | 1.7 | 0.00 | 0.00 | 0.00 | 83 | 1009.0 |
| 20260505101604 | 60 | 349 | 0.9 | 1.7 | 0.00 | 0.00 | 0.00 | 82 | 1008.9 |
| 20260505100104 | 60 | 349 | 1.7 | 2.6 | 0.00 | 0.00 | 0.00 | 82 | 1008.7 |
| 20260505095603 | 60 | 350 | 0.9 | 2.6 | 0.00 | 0.00 | 0.00 | 82 | 1008.8 |
| 20260505094603 | 60 | 350 | 0.0 | 1.7 | 0.00 | 0.00 | 0.00 | 82 | 1008.8 |
| 20260505094103 | 61 | 350 | 0.0 | 4.3 | 0.00 | 0.00 | 0.00 | 81 | 1008.7 |
| 20260505093603 | 61 | 349 | 1.7 | 4.3 | 0.00 | 0.00 | 0.00 | 81 | 1008.8 |
| 20260505092604 | 62 | 350 | 1.7 | 7.0 | 0.00 | 0.00 | 0.00 | 81 | 1008.7 |
| 20260505090604 | 62 | 348 | 1.7 | 4.3 | 0.00 | 0.00 | 0.00 | 80 | 1008.6 |
| 20260505090104 | 62 | 349 | 1.7 | 6.1 | 0.00 | 0.00 | 0.00 | 80 | 1008.4 |
| 20260505085604 | 62 | 349 | 0.9 | 6.1 | 0.00 | 0.00 | 0.00 | 80 | 1008.4 |
| 20260505085104 | 62 | 346 | 2.6 | 6.1 | 0.00 | 0.00 | 0.00 | 79 | 1008.5 |
| 20260505084603 | 62 | 349 | 0.9 | 4.3 | 0.00 | 0.00 | 0.00 | 79 | 1008.4 |
| 20260505084104 | 62 | 348 | 1.7 | 4.3 | 0.00 | 0.00 | 0.00 | 79 | 1008.4 |
| 20260505083103 | 63 | 348 | 2.6 | 5.2 | 0.00 | 0.00 | 0.00 | 78 | 1008.7 |
| 20260505082604 | 62 | 346 | 2.6 | 5.2 | 0.00 | 0.00 | 0.00 | 79 | 1008.6 |
| 20260505082104 | 62 | 348 | 2.6 | 5.2 | 0.00 | 0.00 | 0.00 | 79 | 1008.6 |
| 20260505081604 | 62 | 347 | 1.7 | 4.3 | 0.00 | 0.00 | 0.00 | 79 | 1008.7 |
| 20260505081104 | 63 | 350 | 0.9 | 5.2 | 0.00 | 0.00 | 0.00 | 79 | 1008.7 |
| 20260505075604 | 63 | 347 | 2.6 | 5.2 | 0.00 | 0.00 | 0.00 | 78 | 1008.4 |
| 20260505074604 | 63 | 347 | 2.6 | 5.2 | 0.00 | 0.00 | 0.00 | 77 | 1008.5 |
| 20260505074103 | 63 | 349 | 2.6 | 7.0 | 0.00 | 0.00 | 0.00 | 77 | 1008.2 |
| 20260505073604 | 63 | 346 | 2.6 | 7.8 | 0.00 | 0.00 | 0.00 | 77 | 1008.4 |
| 20260505073104 | 63 | 346 | 1.7 | 5.2 | 0.00 | 0.00 | 0.00 | 78 | 1008.3 |
| 20260505072604 | 63 | 345 | 3.5 | 6.1 | 0.00 | 0.00 | 0.00 | 78 | 1008.3 |
| 20260505072103 | 63 | 346 | 2.6 | 6.1 | 0.00 | 0.00 | 0.00 | 78 | 1008.2 |
| 20260505071104 | 63 | 345 | 4.3 | 5.2 | 0.00 | 0.00 | 0.00 | 77 | 1008.1 |
| 20260505070603 | 63 | 350 | 1.7 | 4.3 | 0.00 | 0.00 | 0.00 | 77 | 1008.2 |
| 20260505070104 | 63 | 349 | 1.7 | 5.2 | 0.00 | 0.00 | 0.00 | 77 | 1008.1 |
| 20260505065604 | 64 | 345 | 2.6 | 7.0 | 0.00 | 0.00 | 0.00 | 77 | 1008.1 |
| 20260505065103 | 64 | 344 | 3.5 | 7.0 | 0.00 | 0.00 | 0.00 | 77 | 1008.1 |
| 20260505064603 | 64 | 342 | 4.3 | 7.0 | 0.00 | 0.00 | 0.00 | 77 | 1008.0 |
| 20260505064103 | 64 | 350 | 2.6 | 6.1 | 0.00 | 0.00 | 0.00 | 77 | 1008.2 |
| 20260505063603 | 64 | 348 | 1.7 | 4.3 | 0.00 | 0.00 | 0.00 | 78 | 1008.1 |
| 20260505063104 | 64 | 344 | 3.5 | 6.1 | 0.00 | 0.00 | 0.00 | 77 | 1008.3 |
| 20260505062604 | 64 | 348 | 1.7 | 7.0 | 0.00 | 0.00 | 0.00 | 77 | 1008.2 |
| 20260505062104 | 64 | 341 | 3.5 | 7.0 | 0.00 | 0.00 | 0.00 | 77 | 1008.1 |
| 20260505061604 | 64 | 345 | 2.6 | 7.0 | 0.00 | 0.00 | 0.00 | 77 | 1008.2 |
| 20260505061104 | 64 | 349 | 3.5 | 6.1 | 0.00 | 0.00 | 0.00 | 77 | 1008.1 |
| 20260505060604 | 64 | 344 | 3.5 | 7.0 | 0.00 | 0.00 | 0.00 | 77 | 1008.2 |
| 20260505060104 | 64 | 344 | 3.5 | 7.8 | 0.00 | 0.00 | 0.00 | 77 | 1008.2 |
| 20260505055603 | 64 | 336 | 4.3 | 7.8 | 0.00 | 0.00 | 0.00 | 76 | 1008.1 |
| 20260505055104 | 64 | 349 | 3.5 | 7.0 | 0.00 | 0.00 | 0.00 | 76 | 1008.2 |
| 20260505054604 | 65 | 345 | 4.3 | 6.1 | 0.00 | 0.00 | 0.00 | 76 | 1008.2 |
| 20260505054104 | 64 | 349 | 1.7 | 4.3 | 0.00 | 0.00 | 0.00 | 77 | 1008.3 |
| 20260505053604 | 65 | 349 | 1.7 | 5.2 | 0.00 | 0.00 | 0.00 | 77 | 1008.3 |
| 20260505053104 | 65 | 345 | 2.6 | 6.1 | 0.00 | 0.00 | 0.00 | 76 | 1008.3 |
| 20260505052604 | 65 | 341 | 4.3 | 7.8 | 0.00 | 0.00 | 0.00 | 76 | 1008.2 |
| 20260505051603 | 65 | 339 | 3.5 | 10.4 | 0.00 | 0.00 | 0.00 | 76 | 1008.2 |
| 20260505051104 | 65 | 347 | 4.3 | 10.4 | 0.00 | 0.00 | 0.00 | 76 | 1008.2 |
| 20260505050604 | 65 | 346 | 5.2 | 10.4 | 0.00 | 0.00 | 0.00 | 75 | 1008.3 |
| 20260505041604 | 66 | 338 | 5.2 | 10.4 | 0.00 | 0.00 | 0.00 | 75 | 1008.2 |
| 20260505041104 | 66 | 341 | 2.6 | 10.4 | 0.00 | 0.00 | 0.00 | 75 | 1008.1 |
| 20260505040604 | 66 | 343 | 3.5 | 7.8 | 0.00 | 0.00 | 0.00 | 75 | 1008.2 |
| 20260505040104 | 66 | 345 | 4.3 | 7.8 | 0.00 | 0.00 | 0.00 | 75 | 1008.1 |
| 20260505035603 | 66 | 342 | 5.2 | 8.7 | 0.00 | 0.00 | 0.00 | 75 | 1008.1 |
| 20260505035104 | 66 | 352 | 5.2 | 8.7 | 0.00 | 0.00 | 0.00 | 75 | 1008.2 |
| 20260505034604 | 67 | 344 | 4.3 | 7.8 | 0.00 | 0.00 | 0.00 | 75 | 1008.0 |
| 20260505034104 | 66 | 341 | 4.3 | 7.8 | 0.00 | 0.00 | 0.00 | 75 | 1008.1 |
| 20260505033104 | 66 | 349 | 4.3 | 7.8 | 0.00 | 0.00 | 0.00 | 74 | 1008.0 |
| 20260505032603 | 66 | 348 | 2.6 | 7.8 | 0.00 | 0.00 | 0.00 | 74 | 1008.0 |
| 20260505032104 | 66 | 343 | 3.5 | 7.0 | 0.00 | 0.00 | 0.00 | 73 | 1008.2 |
| 20260505031604 | 66 | 339 | 4.3 | 7.0 | 0.00 | 0.00 | 0.00 | 72 | 1008.1 |
| 20260505031104 | 66 | 353 | 2.6 | 7.0 | 0.00 | 0.00 | 0.00 | 72 | 1008.0 |
| 20260505030603 | 66 | 353 | 1.7 | 6.1 | 0.00 | 0.00 | 0.00 | 71 | 1008.1 |
| 20260505030105 | 66 | 343 | 1.7 | 6.1 | 0.00 | 0.00 | 0.00 | 70 | 1007.8 |
| 20260505025603 | 66 | 352 | 2.6 | 4.3 | 0.00 | 0.00 | 0.00 | 69 | 1007.9 |
| 20260505025104 | 66 | 353 | 1.7 | 2.6 | 0.00 | 0.00 | 0.00 | 67 | 1007.9 |
| 20260505023604 | 66 | 352 | 1.7 | 2.6 | 0.00 | 0.00 | 0.00 | 62 | 1007.8 |
| 20260505023104 | 66 | 353 | 0.9 | 1.7 | 0.00 | 0.00 | 0.00 | 63 | 1007.6 |
| 20260505022603 | 66 | 353 | 0.9 | 1.7 | 0.00 | 0.00 | 0.00 | 62 | 1007.7 |
| 20260505021604 | 66 | 353 | 0.9 | 2.6 | 0.00 | 0.00 | 0.00 | 64 | 1007.5 |
| 20260505021103 | 66 | 353 | 0.9 | 1.7 | 0.00 | 0.00 | 0.00 | 63 | 1007.5 |
| 20260505020604 | 67 | 353 | 0.9 | 1.7 | 0.00 | 0.00 | 0.00 | 62 | 1007.4 |
| 20260505020104 | 67 | 353 | 0.0 | 2.6 | 0.00 | 0.00 | 0.00 | 61 | 1007.3 |
| 20260505015603 | 67 | 353 | 0.0 | 1.7 | 0.00 | 0.00 | 0.00 | 61 | 1007.4 |
| 20260505015103 | 67 | 353 | 0.9 | 2.6 | 0.00 | 0.00 | 0.00 | 60 | 1007.1 |
| 20260505014604 | 67 | 354 | 0.9 | 2.6 | 0.00 | 0.00 | 0.00 | 62 | 1007.0 |
| 20260505014104 | 67 | 353 | 0.9 | 2.6 | 0.00 | 0.00 | 0.00 | 62 | 1007.1 |
| 20260505013604 | 67 | 352 | 0.9 | 1.7 | 0.00 | 0.00 | 0.00 | 61 | 1007.3 |
| 20260505013103 | 67 | 352 | 0.9 | 1.7 | 0.00 | 0.00 | 0.00 | 62 | 1007.3 |
| 20260505012104 | 67 | 352 | 0.9 | 0.9 | 0.00 | 0.00 | 0.00 | 61 | 1007.4 |
| 20260505011604 | 67 | 352 | 0.9 | 0.9 | 0.00 | 0.00 | 0.00 | 60 | 1007.3 |
| 20260505011104 | 68 | 352 | 0.0 | 1.7 | 0.00 | 0.00 | 0.00 | 61 | 1007.2 |
| 20260505010604 | 68 | 352 | 0.9 | 1.7 | 0.00 | 0.00 | 0.00 | 60 | 1007.3 |
| 20260505010104 | 68 | 351 | 0.9 | 0.9 | 0.00 | 0.00 | 0.00 | 60 | 1007.3 |
| 20260505005604 | 68 | 351 | 0.0 | 0.9 | 0.00 | 0.00 | 0.00 | 55 | 1007.0 |
| 20260505005104 | 68 | 351 | 0.0 | 1.7 | 0.00 | 0.00 | 0.00 | 55 | 1007.1 |
| 20260505004603 | 69 | 351 | 1.7 | 1.7 | 0.00 | 0.00 | 0.00 | 54 | 1007.0 |
| 20260505004103 | 69 | 351 | 0.0 | 1.7 | 0.00 | 0.00 | 0.00 | 54 | 1006.9 |
| 20260505003604 | 70 | 351 | 0.9 | 0.9 | 0.00 | 0.00 | 0.00 | 53 | 1006.9 |
| 20260505002604 | 70 | 351 | 0.0 | 2.6 | 0.00 | 0.00 | 0.00 | 52 | 1006.7 |
| 20260505001103 | 71 | 351 | 0.9 | 1.7 | 0.00 | 0.00 | 0.00 | 52 | 1006.6 |
| 20260505000603 | 72 | 351 | 0.0 | 1.7 | 0.00 | 0.00 | 0.00 | 51 | 1006.6 |
| 20260505000104 | 73 | 351 | 0.9 | 2.6 | 0.00 | 0.00 | 0.00 | 50 | 1006.7 |
| 20260504235603 | 73 | 350 | 1.7 | 2.6 | 0.00 | 0.00 | 0.00 | 50 | 1006.7 |
| 20260504235103 | 73 | 349 | 1.7 | 2.6 | 0.00 | 0.00 | 0.00 | 49 | 1006.5 |
| 20260504234603 | 74 | 349 | 1.7 | 2.6 | 0.00 | 0.00 | 0.00 | 48 | 1006.4 |
| 20260504234103 | 74 | 349 | 1.7 | 5.2 | 0.00 | 0.00 | 0.00 | 49 | 1006.5 |
| 20260504233603 | 74 | 350 | 1.7 | 4.3 | 0.00 | 0.00 | 0.00 | 48 | 1006.3 |
| 20260504233103 | 74 | 349 | 4.3 | 5.2 | 0.00 | 0.00 | 0.00 | 47 | 1006.4 |
| 20260504232604 | 74 | 349 | 1.7 | 4.3 | 0.00 | 0.00 | 0.00 | 47 | 1006.2 |
| 20260504232104 | 74 | 344 | 1.7 | 4.3 | 0.00 | 0.00 | 0.00 | 46 | 1006.5 |
| 20260504231604 | 75 | 351 | 1.7 | 6.1 | 0.00 | 0.00 | 0.00 | 47 | 1006.2 |
| 20260504231104 | 75 | 352 | 1.7 | 6.1 | 0.00 | 0.00 | 0.00 | 45 | 1006.3 |
| 20260504230603 | 75 | 350 | 2.6 | 5.2 | 0.00 | 0.00 | 0.00 | 46 | 1006.2 |
| 20260504225603 | 76 | 348 | 1.7 | 4.3 | 0.00 | 0.00 | 0.00 | 45 | 1006.2 |
| 20260504224604 | 76 | 351 | 2.6 | 5.2 | 0.00 | 0.00 | 0.00 | 44 | 1006.1 |
| 20260504223604 | 77 | 349 | 1.7 | 7.8 | 0.00 | 0.00 | 0.00 | 44 | 1006.2 |
| 20260504223103 | 77 | 349 | 2.6 | 7.0 | 0.00 | 0.00 | 0.00 | 44 | 1006.2 |
| 20260504222604 | 77 | 336 | 4.3 | 7.8 | 0.00 | 0.00 | 0.00 | 42 | 1006.3 |
| 20260504222104 | 78 | 348 | 4.3 | 7.0 | 0.00 | 0.00 | 0.00 | 42 | 1006.3 |
| 20260504221104 | 78 | 346 | 4.3 | 8.7 | 0.00 | 0.00 | 0.00 | 42 | 1006.2 |
| 20260504220604 | 78 | 347 | 2.6 | 7.8 | 0.00 | 0.00 | 0.00 | 42 | 1006.3 |
| 20260504220104 | 78 | 350 | 4.3 | 7.8 | 0.00 | 0.00 | 0.00 | 41 | 1006.4 |
| 20260504215604 | 78 | 350 | 2.6 | 7.0 | 0.00 | 0.00 | 0.00 | 42 | 1006.4 |
| 20260504215104 | 78 | 348 | 3.5 | 7.8 | 0.00 | 0.00 | 0.00 | 42 | 1006.4 |
| 20260504214603 | 79 | 351 | 1.7 | 7.8 | 0.00 | 0.00 | 0.00 | 41 | 1006.4 |
| 20260504214103 | 80 | 350 | 2.6 | 7.8 | 0.00 | 0.00 | 0.00 | 40 | 1006.3 |
| 20260504213103 | 79 | 347 | 2.6 | 6.1 | 0.00 | 0.00 | 0.00 | 42 | 1006.5 |
| 20260504212604 | 78 | 346 | 4.3 | 7.8 | 0.00 | 0.00 | 0.00 | 41 | 1006.3 |
| 20260504212103 | 78 | 350 | 3.5 | 6.1 | 0.00 | 0.00 | 0.00 | 41 | 1006.5 |
| 20260504211603 | 78 | 350 | 2.6 | 6.1 | 0.00 | 0.00 | 0.00 | 40 | 1006.4 |
| 20260504211104 | 78 | 350 | 3.5 | 7.8 | 0.00 | 0.00 | 0.00 | 40 | 1006.4 |
| 20260504210604 | 78 | 347 | 4.3 | 7.8 | 0.00 | 0.00 | 0.00 | 40 | 1006.7 |
| 20260504210104 | 78 | 351 | 2.6 | 7.0 | 0.00 | 0.00 | 0.00 | 39 | 1006.7 |
| 20260504205104 | 78 | 351 | 2.6 | 5.2 | 0.00 | 0.00 | 0.00 | 38 | 1006.6 |
| 20260504204604 | 78 | 348 | 2.6 | 5.2 | 0.00 | 0.00 | 0.00 | 37 | 1006.5 |
| 20260504204104 | 78 | 351 | 1.7 | 7.0 | 0.00 | 0.00 | 0.00 | 38 | 1006.7 |
| 20260504202603 | 77 | 347 | 4.3 | 7.8 | 0.00 | 0.00 | 0.00 | 37 | 1006.9 |
| 20260504202103 | 77 | 347 | 5.2 | 8.7 | 0.00 | 0.00 | 0.00 | 35 | 1007.0 |
| 20260504201604 | 76 | 349 | 4.3 | 8.7 | 0.00 | 0.00 | 0.00 | 36 | 1006.9 |
| 20260504201103 | 77 | 347 | 4.3 | 8.7 | 0.00 | 0.00 | 0.00 | 36 | 1007.0 |
| 20260504200603 | 77 | 351 | 2.6 | 7.8 | 0.00 | 0.00 | 0.00 | 38 | 1007.0 |
| 20260504200104 | 77 | 348 | 4.3 | 10.4 | 0.00 | 0.00 | 0.00 | 38 | 1007.0 |
| 20260504195104 | 77 | 352 | 1.7 | 5.2 | 0.00 | 0.00 | 0.00 | 40 | 1007.1 |
| 20260504194103 | 76 | 352 | 1.7 | 6.1 | 0.00 | 0.00 | 0.00 | 38 | 1007.1 |
| 20260504193603 | 77 | 351 | 2.6 | 7.0 | 0.00 | 0.00 | 0.00 | 40 | 1007.3 |
| 20260504193103 | 76 | 350 | 3.5 | 6.1 | 0.00 | 0.00 | 0.00 | 40 | 1007.3 |
| 20260504192603 | 76 | 349 | 3.5 | 5.2 | 0.00 | 0.00 | 0.00 | 39 | 1007.4 |
| 20260504192104 | 76 | 346 | 4.3 | 7.0 | 0.00 | 0.00 | 0.00 | 39 | 1007.5 |
| 20260504191604 | 76 | 350 | 4.3 | 5.2 | 0.00 | 0.00 | 0.00 | 40 | 1007.7 |
| 20260504191104 | 76 | 348 | 4.3 | 6.1 | 0.00 | 0.00 | 0.00 | 39 | 1007.7 |
| 20260504190604 | 76 | 348 | 0.9 | 6.1 | 0.00 | 0.00 | 0.00 | 39 | 1007.6 |
| 20260504190104 | 75 | 350 | 1.7 | 5.2 | 0.00 | 0.00 | 0.00 | 38 | 1007.7 |
| 20260504185604 | 75 | 349 | 1.7 | 6.1 | 0.00 | 0.00 | 0.00 | 39 | 1007.8 |
| 20260504185103 | 75 | 351 | 4.3 | 7.0 | 0.00 | 0.00 | 0.00 | 38 | 1007.8 |
| 20260504184603 | 75 | 351 | 2.6 | 7.0 | 0.00 | 0.00 | 0.00 | 39 | 1008.0 |
| 20260504184103 | 76 | 348 | 2.6 | 7.0 | 0.00 | 0.00 | 0.00 | 38 | 1007.9 |
| 20260504183603 | 75 | 349 | 3.5 | 10.4 | 0.00 | 0.00 | 0.00 | 37 | 1008.2 |
| 20260504183104 | 75 | 344 | 6.1 | 8.7 | 0.00 | 0.00 | 0.00 | 38 | 1008.1 |
| 20260504182104 | 76 | 351 | 2.6 | 8.7 | 0.00 | 0.00 | 0.00 | 37 | 1008.3 |
| 20260504181604 | 76 | 347 | 4.3 | 8.7 | 0.00 | 0.00 | 0.00 | 37 | 1008.5 |
| 20260504181103 | 76 | 347 | 5.2 | 7.0 | 0.00 | 0.00 | 0.00 | 36 | 1008.4 |
| 20260504180603 | 75 | 352 | 4.3 | 8.7 | 0.00 | 0.00 | 0.00 | 37 | 1008.4 |
| 20260504180104 | 75 | 346 | 5.2 | 8.7 | 0.00 | 0.00 | 0.00 | 36 | 1008.5 |
| 20260504175604 | 75 | 342 | 5.2 | 13.0 | 0.00 | 0.00 | 0.00 | 36 | 1008.4 |
| 20260504175104 | 76 | 353 | 5.2 | 7.0 | 0.00 | 0.00 | 0.00 | 36 | 1008.7 |
| 20260504174604 | 76 | 353 | 3.5 | 7.0 | 0.00 | 0.00 | 0.00 | 36 | 1008.7 |
| 20260504174103 | 74 | 354 | 2.6 | 6.1 | 0.00 | 0.00 | 0.00 | 37 | 1008.5 |
| 20260504173603 | 74 | 353 | 3.5 | 8.7 | 0.00 | 0.00 | 0.00 | 37 | 1008.8 |
| 20260504173104 | 75 | 351 | 3.5 | 8.7 | 0.00 | 0.00 | 0.00 | 39 | 1008.6 |
| 20260504172604 | 74 | 352 | 5.2 | 10.4 | 0.00 | 0.00 | 0.00 | 36 | 1008.8 |
| 20260504171604 | 75 | 354 | 3.5 | 7.8 | 0.00 | 0.00 | 0.00 | 39 | 1008.8 |
| 20260504171103 | 75 | 353 | 1.7 | 7.0 | 0.00 | 0.00 | 0.00 | 38 | 1009.0 |
| 20260504160105 | 71 | 354 | 2.6 | 5.2 | 0.00 | 0.00 | 0.00 | 46 | 1009.8 |
| 20260504151103 | 69 | 352 | 3.5 | 7.0 | 0.00 | 0.00 | 0.00 | 53 | 1010.0 |
| 20260504150604 | 69 | 354 | 2.6 | 5.2 | 0.00 | 0.00 | 0.00 | 54 | 1009.9 |
| 20260504150104 | 68 | 354 | 2.6 | 5.2 | 0.00 | 0.00 | 0.00 | 54 | 1009.8 |
| 20260504141103 | 66 | 353 | 3.5 | 7.0 | 0.00 | 0.00 | 0.00 | 58 | 1010.2 |
| 20260504140604 | 66 | 354 | 3.5 | 6.1 | 0.00 | 0.00 | 0.00 | 57 | 1010.3 |
| 20260504140104 | 65 | 351 | 2.6 | 6.1 | 0.00 | 0.00 | 0.00 | 59 | 1010.0 |
| 20260504130603 | 62 | 354 | 2.6 | 7.0 | 0.00 | 0.00 | 0.00 | 67 | 1010.6 |
| 20260504130104 | 61 | 353 | 3.5 | 7.0 | 0.00 | 0.00 | 0.00 | 68 | 1010.6 |